SVA211 OEJN-LIMC

Flight info

Callsign SVA211
Flight time N/A
Altitude 34000
Route MIGDA L677 CVO L617 SOBAX/N0457F360 L617 NABSI M872 METRU UM872 PLH DCT OSDES DCT LATAN DCT LOMED DCT BEROK DCT MIVKI DCT GOLAS/N0381F180 T648 MEBUR
Aircraft A320/M-SDE3FGHIRWY/LB1

Departure

Time 2025-10-28 11:15
Airport King Abdulaziz International Airport (OEJN)

Arrival

Time N/A
Airport Milan Malpensa International Airport (LIMC)
Time Latitude Longitude Altitude Speed Heading
2025-10-28 10:57 21.66994 39.16677 40 ft 0 kts 360°
2025-10-28 11:05 21.66969 39.16678 39 ft 3 kts 356°
2025-10-28 11:05 21.66928 39.16683 37 ft 3 kts 345°
2025-10-28 11:06 21.66897 39.16706 38 ft 0 kts 274°
2025-10-28 11:08 21.66898 39.16689 38 ft 7 kts 274°
2025-10-28 11:08 21.66903 39.16601 37 ft 5 kts 268°
2025-10-28 11:09 21.66864 39.16465 36 ft 11 kts 249°
2025-10-28 11:09 21.66931 39.16373 34 ft 15 kts 341°
2025-10-28 11:10 21.67458 39.16155 34 ft 31 kts 340°
2025-10-28 11:10 21.67870 39.15998 33 ft 31 kts 339°
2025-10-28 11:11 21.68279 39.15832 32 ft 32 kts 339°
2025-10-28 11:11 21.68693 39.15675 31 ft 32 kts 340°
2025-10-28 11:12 21.68900 39.15593 30 ft 32 kts 339°
2025-10-28 11:12 21.69310 39.15427 31 ft 31 kts 340°
2025-10-28 11:13 21.69546 39.15286 30 ft 13 kts 262°
2025-10-28 11:13 21.69460 39.15175 30 ft 8 kts 159°
2025-10-28 11:13 21.68918 39.15389 30 ft 103 kts 160°
2025-10-28 11:14 21.65320 39.16915 1057 ft 187 kts 156°
2025-10-28 11:15 21.63374 39.18077 1898 ft 202 kts 150°
2025-10-28 11:15 21.60778 39.19760 2590 ft 225 kts 150°
2025-10-28 11:15 21.59434 39.20621 3213 ft 224 kts 149°
2025-10-28 11:16 21.56876 39.22845 3840 ft 259 kts 135°
2025-10-28 11:16 21.54351 39.25790 4979 ft 272 kts 133°
2025-10-28 11:17 21.51763 39.28789 6304 ft 276 kts 134°
2025-10-28 11:18 21.49194 39.34162 6993 ft 283 kts 85°
2025-10-28 11:18 21.50782 39.37997 6990 ft 288 kts 60°
2025-10-28 11:19 21.52869 39.41679 7007 ft 288 kts 60°
2025-10-28 11:19 21.55921 39.44322 7009 ft 294 kts 14°
2025-10-28 11:20 21.61965 39.42930 8704 ft 306 kts 340°
2025-10-28 11:21 21.68076 39.40526 10151 ft 328 kts 339°
2025-10-28 11:21 21.70284 39.39653 10285 ft 348 kts 339°
2025-10-28 11:22 21.77518 39.36791 11286 ft 379 kts 339°
2025-10-28 11:22 21.82505 39.34835 12511 ft 383 kts 339°
2025-10-28 11:23 21.87535 39.32861 13670 ft 387 kts 339°
2025-10-28 11:23 21.90075 39.31863 14228 ft 390 kts 339°
2025-10-28 11:23 21.95203 39.29847 15303 ft 395 kts 339°
2025-10-28 11:24 22.00404 39.27792 16315 ft 400 kts 339°
2025-10-28 11:24 22.03029 39.26755 16801 ft 403 kts 339°
2025-10-28 11:25 22.11008 39.23603 18224 ft 411 kts 339°
2025-10-28 11:25 22.16418 39.21471 19134 ft 416 kts 339°
2025-10-28 11:26 22.21847 39.19249 19992 ft 419 kts 333°
2025-10-28 11:26 22.26580 39.15637 20786 ft 418 kts 313°
2025-10-28 11:27 22.30542 39.11006 21498 ft 422 kts 311°
2025-10-28 11:27 22.34530 39.06324 22202 ft 425 kts 311°
2025-10-28 11:28 22.38549 39.01610 22807 ft 428 kts 311°
2025-10-28 11:28 22.42599 38.96865 23408 ft 431 kts 311°
2025-10-28 11:29 22.46671 38.92078 23948 ft 434 kts 311°
2025-10-28 11:29 22.50758 38.87259 24477 ft 436 kts 311°
2025-10-28 11:30 22.54863 38.82420 24950 ft 438 kts 311°
2025-10-28 11:30 22.58982 38.77557 25401 ft 440 kts 311°
2025-10-28 11:32 22.77367 38.65643 26893 ft 452 kts 335°
2025-10-28 11:34 23.03732 38.53895 28510 ft 458 kts 335°
2025-10-28 11:36 23.26843 38.43574 30398 ft 447 kts 334°
2025-10-28 11:38 23.49782 38.33294 32004 ft 444 kts 333°
2025-10-28 11:40 23.72578 38.23040 33487 ft 443 kts 333°
2025-10-28 11:43 23.98139 38.11488 33841 ft 442 kts 332°
2025-10-28 11:45 24.17669 38.01836 33839 ft 434 kts 321°
2025-10-28 11:47 24.37623 37.86862 33845 ft 434 kts 321°
2025-10-28 11:49 24.60049 37.69968 33866 ft 434 kts 321°
2025-10-28 11:51 24.77451 37.56806 33884 ft 433 kts 321°
2025-10-28 11:53 24.99762 37.39868 33915 ft 432 kts 321°
2025-10-28 11:55 25.19507 37.24811 33932 ft 431 kts 320°
2025-10-28 11:57 25.39148 37.09773 33941 ft 429 kts 320°
2025-10-28 11:59 25.58754 36.94697 33923 ft 429 kts 320°
2025-10-28 12:01 25.77525 36.80205 33931 ft 429 kts 320°
2025-10-28 12:03 25.97097 36.65039 33928 ft 429 kts 320°
2025-10-28 12:05 26.16618 36.49836 33928 ft 427 kts 318°
2025-10-28 12:07 26.33064 36.31397 33919 ft 421 kts 309°
2025-10-28 12:09 26.49332 36.12585 33935 ft 421 kts 309°
2025-10-28 12:11 26.65543 35.93755 33937 ft 420 kts 308°
2025-10-28 12:12 26.79685 35.77272 33947 ft 419 kts 308°
2025-10-28 12:15 26.97821 35.56029 33969 ft 419 kts 308°
2025-10-28 12:16 27.11844 35.39534 33978 ft 418 kts 308°
2025-10-28 12:19 27.29247 35.18967 33976 ft 417 kts 307°